date,time,SUV Intensity [MED/Hr],UV Index,Daily total [MED],Since Last [MED]
12/11/2022,00:02:34,-0.001,0.0,0.0,0.0
12/11/2022,00:03:34,-0.000,0.0,0.0,0.0
12/11/2022,00:04:34,0.001,0.0,0.0,0.0
12/11/2022,00:05:34,-0.000,0.0,0.0,0.0
12/11/2022,00:06:34,-0.000,0.0,0.0,0.0
12/11/2022,00:07:34,0.001,0.0,0.0,0.0
12/11/2022,00:08:34,0.000,0.0,0.0,0.0
12/11/2022,00:09:34,0.000,0.0,0.0,0.0
12/11/2022,00:10:34,0.000,0.0,0.0,0.0
12/11/2022,00:11:34,-0.001,0.0,0.0,0.0
12/11/2022,00:12:34,0.000,0.0,0.0,0.0
12/11/2022,00:13:34,-0.000,0.0,0.0,0.0
12/11/2022,00:14:34,-0.000,0.0,0.0,0.0
12/11/2022,00:15:33,0.000,0.0,0.0,0.0
12/11/2022,00:16:34,0.001,0.0,0.0,0.0
12/11/2022,00:17:34,0.000,0.0,0.0,0.0
12/11/2022,00:18:34,0.001,0.0,0.0,0.0
12/11/2022,00:19:34,-0.000,0.0,0.0,0.0
12/11/2022,00:20:34,0.000,0.0,0.0,0.0
12/11/2022,00:21:34,-0.000,0.0,0.0,0.0
12/11/2022,00:22:34,0.000,0.0,0.0,0.0
12/11/2022,00:23:34,0.000,0.0,0.0,0.0
12/11/2022,00:24:34,-0.000,0.0,0.0,0.0
12/11/2022,00:25:34,-0.001,0.0,0.0,0.0
12/11/2022,00:26:34,0.001,0.0,0.0,0.0
12/11/2022,00:27:34,-0.000,0.0,0.0,0.0
12/11/2022,00:28:34,-0.000,0.0,0.0,0.0
12/11/2022,00:29:34,0.000,0.0,0.0,0.0
12/11/2022,00:30:34,0.000,0.0,0.0,0.0
12/11/2022,00:31:34,0.000,0.0,0.0,0.0
12/11/2022,00:32:35,0.000,0.0,0.0,0.0
12/11/2022,00:33:35,0.002,0.0,0.0,0.0
12/11/2022,00:34:34,0.001,0.0,0.0,0.0
12/11/2022,00:35:34,0.000,0.0,0.0,0.0
12/11/2022,00:36:34,0.000,0.0,0.0,0.0
12/11/2022,00:37:34,0.000,0.0,0.0,0.0
12/11/2022,00:38:34,0.000,0.0,0.0,0.0
12/11/2022,00:39:34,-0.000,0.0,0.0,0.0
12/11/2022,00:40:35,0.000,0.0,0.0,0.0
12/11/2022,00:41:34,-0.000,0.0,0.0,0.0
12/11/2022,00:42:34,-0.000,0.0,0.0,0.0
12/11/2022,00:43:34,-0.001,0.0,0.0,0.0
12/11/2022,00:44:34,-0.000,0.0,0.0,0.0
12/11/2022,00:45:34,-0.000,0.0,0.0,0.0
12/11/2022,00:46:34,-0.001,0.0,0.0,0.0
12/11/2022,00:47:34,-0.000,0.0,0.0,0.0
12/11/2022,00:48:34,0.000,0.0,0.0,0.0
12/11/2022,00:49:34,0.000,0.0,0.0,0.0
12/11/2022,00:50:34,0.000,0.0,0.0,0.0
12/11/2022,00:51:34,-0.000,0.0,0.0,0.0
12/11/2022,00:52:34,0.000,0.0,0.0,0.0
12/11/2022,00:53:34,-0.000,0.0,0.0,0.0
12/11/2022,00:54:34,0.000,0.0,0.0,0.0
12/11/2022,00:55:34,-0.001,0.0,0.0,0.0
12/11/2022,00:56:34,0.001,0.0,0.0,0.0
12/11/2022,00:57:34,0.000,0.0,0.0,0.0
12/11/2022,00:58:34,-0.000,0.0,0.0,0.0
12/11/2022,00:59:34,0.000,0.0,0.0,0.0
12/11/2022,01:00:34,-0.000,0.0,0.0,0.0
12/11/2022,01:01:34,-0.000,0.0,0.0,0.0
12/11/2022,01:02:34,-0.000,0.0,0.0,0.0
12/11/2022,01:03:34,-0.001,0.0,0.0,0.0
12/11/2022,01:04:34,0.001,0.0,0.0,0.0
12/11/2022,01:05:34,-0.000,0.0,0.0,0.0
12/11/2022,01:06:34,-0.001,0.0,0.0,0.0
12/11/2022,01:07:34,-0.000,0.0,0.0,0.0
12/11/2022,01:08:34,0.001,0.0,0.0,0.0
12/11/2022,01:09:34,-0.000,0.0,0.0,0.0
12/11/2022,01:10:34,-0.001,0.0,0.0,0.0
12/11/2022,01:11:34,-0.000,0.0,0.0,0.0
12/11/2022,01:12:34,-0.000,0.0,0.0,0.0
12/11/2022,01:13:34,0.000,0.0,0.0,0.0
12/11/2022,01:14:34,0.001,0.0,0.0,0.0
12/11/2022,01:15:34,0.000,0.0,0.0,0.0
12/11/2022,01:16:34,-0.000,0.0,0.0,0.0
12/11/2022,01:17:34,0.000,0.0,0.0,0.0
12/11/2022,01:18:34,0.000,0.0,0.0,0.0
12/11/2022,01:19:34,0.000,0.0,0.0,0.0
12/11/2022,01:20:34,0.000,0.0,0.0,0.0
12/11/2022,01:21:34,0.000,0.0,0.0,0.0
12/11/2022,01:22:34,-0.001,0.0,0.0,0.0
12/11/2022,01:23:34,0.000,0.0,0.0,0.0
12/11/2022,01:25:03,-0.000,0.0,0.0,0.0
12/11/2022,01:26:34,0.000,0.0,0.0,0.0
12/11/2022,01:27:34,0.000,0.0,0.0,0.0
12/11/2022,01:28:34,0.000,0.0,0.0,0.0
12/11/2022,01:29:34,0.000,0.0,0.0,0.0
12/11/2022,01:30:34,0.000,0.0,0.0,0.0
12/11/2022,01:31:34,0.001,0.0,0.0,0.0
12/11/2022,01:32:38,0.000,0.0,0.0,0.0
12/11/2022,01:33:34,0.000,0.0,0.0,0.0
12/11/2022,01:34:34,0.001,0.0,0.0,0.0
12/11/2022,01:35:34,0.000,0.0,0.0,0.0
12/11/2022,01:36:34,-0.001,0.0,0.0,0.0
12/11/2022,01:37:34,0.001,0.0,0.0,0.0
12/11/2022,01:38:34,-0.000,0.0,0.0,0.0
12/11/2022,01:39:36,0.000,0.0,0.0,0.0
12/11/2022,01:40:35,0.000,0.0,0.0,0.0
12/11/2022,01:41:34,0.001,0.0,0.0,0.0
12/11/2022,01:42:34,0.000,0.0,0.0,0.0
12/11/2022,01:43:34,0.001,0.0,0.0,0.0
12/11/2022,01:44:34,0.000,0.0,0.0,0.0
12/11/2022,01:45:34,-0.000,0.0,0.0,0.0
12/11/2022,01:46:34,0.000,0.0,0.0,0.0
12/11/2022,01:47:35,-0.001,0.0,0.0,0.0
12/11/2022,01:48:34,-0.001,0.0,0.0,0.0
12/11/2022,01:49:34,0.001,0.0,0.0,0.0
12/11/2022,01:50:34,-0.000,0.0,0.0,0.0
12/11/2022,01:51:34,0.000,0.0,0.0,0.0
12/11/2022,01:52:34,0.000,0.0,0.0,0.0
12/11/2022,01:53:34,0.001,0.0,0.0,0.0
12/11/2022,01:54:35,0.000,0.0,0.0,0.0
12/11/2022,01:55:34,0.000,0.0,0.0,0.0
12/11/2022,01:56:34,0.001,0.0,0.0,0.0
12/11/2022,01:57:35,0.000,0.0,0.0,0.0
12/11/2022,01:58:34,-0.001,0.0,0.0,0.0
12/11/2022,01:59:34,0.000,0.0,0.0,0.0
12/11/2022,02:00:34,0.001,0.0,0.0,0.0
12/11/2022,02:01:34,0.001,0.0,0.0,0.0
12/11/2022,02:02:34,0.000,0.0,0.0,0.0
12/11/2022,02:03:34,0.000,0.0,0.0,0.0
12/11/2022,02:04:34,0.000,0.0,0.0,0.0
12/11/2022,02:05:34,0.000,0.0,0.0,0.0
12/11/2022,02:06:34,0.001,0.0,0.0,0.0
12/11/2022,02:07:35,0.001,0.0,0.0,0.0
12/11/2022,02:08:34,-0.000,0.0,0.0,0.0
12/11/2022,02:09:34,0.001,0.0,0.0,0.0
12/11/2022,02:10:35,0.001,0.0,0.0,0.0
12/11/2022,02:11:34,0.000,0.0,0.0,0.0
12/11/2022,02:12:34,0.001,0.0,0.0,0.0
12/11/2022,02:13:34,0.001,0.0,0.0,0.0
12/11/2022,02:14:34,0.001,0.0,0.0,0.0
12/11/2022,02:15:34,0.000,0.0,0.0,0.0
12/11/2022,02:16:35,0.001,0.0,0.0,0.0
12/11/2022,02:17:34,0.001,0.0,0.0,0.0
12/11/2022,02:18:35,0.001,0.0,0.0,0.0
12/11/2022,02:19:34,-0.000,0.0,0.0,0.0
12/11/2022,02:20:34,0.001,0.0,0.0,0.0
12/11/2022,02:21:34,0.000,0.0,0.0,0.0
12/11/2022,02:22:34,0.000,0.0,0.0,0.0
12/11/2022,02:23:34,0.000,0.0,0.0,0.0
12/11/2022,02:24:34,0.000,0.0,0.0,0.0
12/11/2022,02:25:34,0.000,0.0,0.0,0.0
12/11/2022,02:26:34,0.000,0.0,0.0,0.0
12/11/2022,02:27:34,0.000,0.0,0.0,0.0
12/11/2022,02:28:34,0.000,0.0,0.0,0.0
12/11/2022,02:29:34,0.000,0.0,0.0,0.0
12/11/2022,02:30:35,-0.001,0.0,0.0,0.0
12/11/2022,02:31:34,-0.001,0.0,0.0,0.0
12/11/2022,02:32:34,0.000,0.0,0.0,0.0
12/11/2022,02:33:34,0.001,0.0,0.0,0.0
12/11/2022,02:34:34,0.000,0.0,0.0,0.0
12/11/2022,02:35:34,0.001,0.0,0.0,0.0
12/11/2022,02:36:34,0.000,0.0,0.0,0.0
12/11/2022,02:37:34,0.001,0.0,0.0,0.0
12/11/2022,02:38:34,-0.000,0.0,0.0,0.0
12/11/2022,02:39:35,0.000,0.0,0.0,0.0
12/11/2022,02:40:34,0.000,0.0,0.0,0.0
12/11/2022,02:41:34,0.000,0.0,0.0,0.0
12/11/2022,02:42:34,0.000,0.0,0.0,0.0
12/11/2022,02:43:34,0.000,0.0,0.0,0.0
12/11/2022,02:44:34,0.000,0.0,0.0,0.0
12/11/2022,02:45:34,0.000,0.0,0.0,0.0
12/11/2022,02:46:34,0.000,0.0,0.0,0.0
12/11/2022,02:47:35,0.000,0.0,0.0,0.0
12/11/2022,02:48:34,0.000,0.0,0.0,0.0
12/11/2022,02:49:34,0.000,0.0,0.0,0.0
12/11/2022,02:50:34,-0.001,0.0,0.0,0.0
12/11/2022,02:51:34,-0.001,0.0,0.0,0.0
12/11/2022,02:52:34,-0.000,0.0,0.0,0.0
12/11/2022,02:53:35,0.000,0.0,0.0,0.0
12/11/2022,02:54:34,0.000,0.0,0.0,0.0
12/11/2022,02:55:34,0.001,0.0,0.0,0.0
12/11/2022,02:56:34,0.000,0.0,0.0,0.0
12/11/2022,02:57:34,0.001,0.0,0.0,0.0
12/11/2022,02:58:35,0.000,0.0,0.0,0.0
12/11/2022,02:59:34,0.000,0.0,0.0,0.0
12/11/2022,03:00:34,0.000,0.0,0.0,0.0
12/11/2022,03:01:34,0.000,0.0,0.0,0.0
12/11/2022,03:02:34,0.001,0.0,0.0,0.0
12/11/2022,03:03:34,-0.000,0.0,0.0,0.0
12/11/2022,03:04:34,0.000,0.0,0.0,0.0
12/11/2022,03:05:34,-0.001,0.0,0.0,0.0
12/11/2022,03:06:34,0.001,0.0,0.0,0.0
12/11/2022,03:07:34,0.000,0.0,0.0,0.0
12/11/2022,03:08:35,0.001,0.0,0.0,0.0
12/11/2022,03:09:34,-0.001,0.0,0.0,0.0
12/11/2022,03:10:35,-0.000,0.0,0.0,0.0
12/11/2022,03:11:34,0.001,0.0,0.0,0.0
12/11/2022,03:12:34,-0.000,0.0,0.0,0.0
12/11/2022,03:13:34,0.000,0.0,0.0,0.0
12/11/2022,03:14:34,0.000,0.0,0.0,0.0
12/11/2022,03:15:34,0.000,0.0,0.0,0.0
12/11/2022,03:16:35,0.000,0.0,0.0,0.0
12/11/2022,03:17:34,0.001,0.0,0.0,0.0
12/11/2022,03:18:34,0.000,0.0,0.0,0.0
12/11/2022,03:19:35,0.001,0.0,0.0,0.0
12/11/2022,03:20:34,0.000,0.0,0.0,0.0
12/11/2022,03:21:34,0.001,0.0,0.0,0.0
12/11/2022,03:22:34,0.001,0.0,0.0,0.0
12/11/2022,03:23:34,-0.001,0.0,0.0,0.0
12/11/2022,03:24:34,0.001,0.0,0.0,0.0
12/11/2022,03:25:34,0.000,0.0,0.0,0.0
12/11/2022,03:26:34,-0.000,0.0,0.0,0.0
12/11/2022,03:27:35,0.000,0.0,0.0,0.0
12/11/2022,03:28:34,-0.000,0.0,0.0,0.0
12/11/2022,03:29:35,0.000,0.0,0.0,0.0
12/11/2022,03:30:34,0.000,0.0,0.0,0.0
12/11/2022,03:31:34,0.000,0.0,0.0,0.0
12/11/2022,03:32:34,0.000,0.0,0.0,0.0
12/11/2022,03:33:34,-0.001,0.0,0.0,0.0
12/11/2022,03:34:36,0.001,0.0,0.0,0.0
12/11/2022,03:35:35,0.000,0.0,0.0,0.0
12/11/2022,03:36:34,-0.001,0.0,0.0,0.0
12/11/2022,03:37:34,-0.000,0.0,0.0,0.0
12/11/2022,03:38:35,0.000,0.0,0.0,0.0
12/11/2022,03:39:34,0.000,0.0,0.0,0.0
12/11/2022,03:40:35,0.000,0.0,0.0,0.0
12/11/2022,03:41:34,0.000,0.0,0.0,0.0
12/11/2022,03:42:34,0.000,0.0,0.0,0.0
12/11/2022,03:43:34,0.000,0.0,0.0,0.0
12/11/2022,03:44:35,-0.001,0.0,0.0,0.0
12/11/2022,03:45:34,0.000,0.0,0.0,0.0
12/11/2022,03:46:35,0.000,0.0,0.0,0.0
12/11/2022,03:47:34,-0.001,0.0,0.0,0.0
12/11/2022,03:48:34,0.000,0.0,0.0,0.0
12/11/2022,03:49:34,0.000,0.0,0.0,0.0
12/11/2022,03:50:35,0.001,0.0,0.0,0.0
12/11/2022,03:51:34,0.001,0.0,0.0,0.0
12/11/2022,03:52:34,-0.001,0.0,0.0,0.0
12/11/2022,03:53:34,0.001,0.0,0.0,0.0
12/11/2022,03:54:34,-0.000,0.0,0.0,0.0
12/11/2022,03:55:34,-0.000,0.0,0.0,0.0
12/11/2022,03:56:34,0.000,0.0,0.0,0.0
12/11/2022,03:57:34,0.000,0.0,0.0,0.0
12/11/2022,03:58:34,0.000,0.0,0.0,0.0
12/11/2022,03:59:35,-0.000,0.0,0.0,0.0
12/11/2022,04:00:34,0.000,0.0,0.0,0.0
12/11/2022,04:01:34,0.000,0.0,0.0,0.0
12/11/2022,04:02:35,0.000,0.0,0.0,0.0
12/11/2022,04:03:34,-0.001,0.0,0.0,0.0
12/11/2022,04:04:34,-0.000,0.0,0.0,0.0
12/11/2022,04:05:34,0.000,0.0,0.0,0.0
12/11/2022,04:06:34,0.000,0.0,0.0,0.0
12/11/2022,04:07:34,0.000,0.0,0.0,0.0
12/11/2022,04:08:35,-0.000,0.0,0.0,0.0
12/11/2022,04:09:34,0.000,0.0,0.0,0.0
12/11/2022,04:10:34,-0.000,0.0,0.0,0.0
12/11/2022,04:11:35,0.000,0.0,0.0,0.0
12/11/2022,04:12:34,0.000,0.0,0.0,0.0
12/11/2022,04:13:34,0.000,0.0,0.0,0.0
12/11/2022,04:14:34,-0.001,0.0,0.0,0.0
12/11/2022,04:15:34,0.000,0.0,0.0,0.0
12/11/2022,04:16:34,-0.000,0.0,0.0,0.0
12/11/2022,04:17:35,-0.001,0.0,0.0,0.0
12/11/2022,04:18:34,-0.000,0.0,0.0,0.0
12/11/2022,04:19:35,-0.001,0.0,0.0,0.0
12/11/2022,04:20:34,-0.001,0.0,0.0,0.0
12/11/2022,04:21:34,-0.001,0.0,0.0,0.0
12/11/2022,04:22:35,0.000,0.0,0.0,0.0
12/11/2022,04:23:34,-0.000,0.0,0.0,0.0
12/11/2022,04:24:35,-0.000,0.0,0.0,0.0
12/11/2022,04:25:34,-0.001,0.0,0.0,0.0
12/11/2022,04:26:35,0.000,0.0,0.0,0.0
12/11/2022,04:27:34,0.000,0.0,0.0,0.0
12/11/2022,04:28:35,0.000,0.0,0.0,0.0
12/11/2022,04:29:35,0.000,0.0,0.0,0.0
12/11/2022,04:30:35,0.000,0.0,0.0,0.0
12/11/2022,04:31:34,0.000,0.0,0.0,0.0
12/11/2022,04:32:34,0.000,0.0,0.0,0.0
12/11/2022,04:33:35,0.000,0.0,0.0,0.0
12/11/2022,04:34:34,-0.000,0.0,0.0,0.0
12/11/2022,04:35:34,0.000,0.0,0.0,0.0
12/11/2022,04:36:34,-0.000,0.0,0.0,0.0
12/11/2022,04:37:34,0.000,0.0,0.0,0.0
12/11/2022,04:38:34,0.001,0.0,0.0,0.0
12/11/2022,04:39:34,-0.000,0.0,0.0,0.0
12/11/2022,04:40:34,0.001,0.0,0.0,0.0
12/11/2022,04:41:34,0.001,0.0,0.0,0.0
12/11/2022,04:42:34,0.000,0.0,0.0,0.0
12/11/2022,04:43:35,-0.001,0.0,0.0,0.0
12/11/2022,04:44:34,-0.001,0.0,0.0,0.0
12/11/2022,04:45:34,-0.000,0.0,0.0,0.0
12/11/2022,04:46:34,0.000,0.0,0.0,0.0
12/11/2022,04:47:34,-0.000,0.0,0.0,0.0
12/11/2022,04:48:34,-0.001,0.0,0.0,0.0
12/11/2022,04:49:34,-0.000,0.0,0.0,0.0
12/11/2022,04:50:34,0.000,0.0,0.0,0.0
12/11/2022,04:51:35,-0.001,0.0,0.0,0.0
12/11/2022,04:52:34,0.000,0.0,0.0,0.0
12/11/2022,04:53:34,0.000,0.0,0.0,0.0
12/11/2022,04:54:34,-0.001,0.0,0.0,0.0
12/11/2022,04:55:34,0.000,0.0,0.0,0.0
12/11/2022,04:56:35,0.000,0.0,0.0,0.0
12/11/2022,04:57:35,0.000,0.0,0.0,0.0
12/11/2022,04:58:35,0.000,0.0,0.0,0.0
12/11/2022,04:59:34,0.001,0.0,0.0,0.0
12/11/2022,05:00:34,0.000,0.0,0.0,0.0
12/11/2022,05:01:35,0.001,0.0,0.0,0.0
12/11/2022,05:02:34,0.000,0.0,0.0,0.0
12/11/2022,05:03:35,0.001,0.0,0.0,0.0
12/11/2022,05:04:34,0.000,0.0,0.0,0.0
12/11/2022,05:05:34,0.001,0.0,0.0,0.0
12/11/2022,05:06:35,0.000,0.0,0.0,0.0
12/11/2022,05:07:34,0.000,0.0,0.0,0.0
12/11/2022,05:08:34,-0.000,0.0,0.0,0.0
12/11/2022,05:09:35,0.000,0.0,0.0,0.0
12/11/2022,05:10:34,0.000,0.0,0.0,0.0
12/11/2022,05:11:34,0.000,0.0,0.0,0.0
12/11/2022,05:12:35,-0.000,0.0,0.0,0.0
12/11/2022,05:13:34,-0.001,0.0,0.0,0.0
12/11/2022,05:14:34,0.001,0.0,0.0,0.0
12/11/2022,05:15:35,-0.000,0.0,0.0,0.0
12/11/2022,05:16:34,-0.000,0.0,0.0,0.0
12/11/2022,05:17:34,0.001,0.0,0.0,0.0
12/11/2022,05:18:35,-0.001,0.0,0.0,0.0
12/11/2022,05:19:34,-0.000,0.0,0.0,0.0
12/11/2022,05:20:35,-0.000,0.0,0.0,0.0
12/11/2022,05:21:34,0.001,0.0,0.0,0.0
12/11/2022,05:22:34,-0.000,0.0,0.0,0.0
12/11/2022,05:23:34,-0.001,0.0,0.0,0.0
12/11/2022,05:24:35,-0.000,0.0,0.0,0.0
12/11/2022,05:25:35,-0.001,0.0,0.0,0.0
12/11/2022,05:26:35,0.000,0.0,0.0,0.0
12/11/2022,05:27:34,0.000,0.0,0.0,0.0
12/11/2022,05:28:35,-0.000,0.0,0.0,0.0
12/11/2022,05:29:34,-0.000,0.0,0.0,0.0
12/11/2022,05:30:34,-0.000,0.0,0.0,0.0
12/11/2022,05:31:35,0.000,0.0,0.0,0.0
12/11/2022,05:32:34,-0.000,0.0,0.0,0.0
12/11/2022,05:33:34,0.000,0.0,0.0,0.0
12/11/2022,05:34:34,0.000,0.0,0.0,0.0
12/11/2022,05:35:34,-0.000,0.0,0.0,0.0
12/11/2022,05:36:35,-0.000,0.0,0.0,0.0
12/11/2022,05:37:34,-0.000,0.0,0.0,0.0
12/11/2022,05:38:34,-0.000,0.0,0.0,0.0
12/11/2022,05:39:35,-0.001,0.0,0.0,0.0
12/11/2022,05:40:34,0.001,0.0,0.0,0.0
12/11/2022,05:41:35,0.000,0.0,0.0,0.0
12/11/2022,05:42:35,-0.000,0.0,0.0,0.0
12/11/2022,05:43:35,-0.000,0.0,0.0,0.0
12/11/2022,05:44:34,0.000,0.0,0.0,0.0
12/11/2022,05:45:34,0.001,0.0,0.0,0.0
12/11/2022,05:46:34,0.000,0.0,0.0,0.0
12/11/2022,05:47:35,0.000,0.0,0.0,0.0
12/11/2022,05:48:34,0.000,0.0,0.0,0.0
12/11/2022,05:49:35,-0.000,0.0,0.0,0.0
12/11/2022,05:50:34,-0.001,0.0,0.0,0.0
12/11/2022,05:51:34,-0.000,0.0,0.0,0.0
12/11/2022,05:52:34,-0.000,0.0,0.0,0.0
12/11/2022,05:53:35,0.001,0.0,0.0,0.0
12/11/2022,05:54:34,-0.000,0.0,0.0,0.0
12/11/2022,05:55:34,0.000,0.0,0.0,0.0
12/11/2022,05:56:34,0.000,0.0,0.0,0.0
12/11/2022,05:57:34,-0.000,0.0,0.0,0.0
12/11/2022,05:58:34,-0.001,0.0,0.0,0.0
12/11/2022,05:59:35,-0.000,0.0,0.0,0.0
12/11/2022,06:00:34,-0.000,0.0,0.0,0.0
12/11/2022,06:01:34,-0.000,0.0,0.0,0.0
12/11/2022,06:02:36,-0.001,0.0,0.0,0.0
12/11/2022,06:03:35,-0.000,0.0,0.0,0.0
12/11/2022,06:04:35,-0.000,0.0,0.0,0.0
12/11/2022,06:05:34,0.000,0.0,0.0,0.0
12/11/2022,06:06:34,0.000,0.0,0.0,0.0
12/11/2022,06:07:35,-0.000,0.0,0.0,0.0
12/11/2022,06:08:34,0.000,0.0,0.0,0.0
12/11/2022,06:09:34,0.001,0.0,0.0,0.0
12/11/2022,06:10:35,-0.001,0.0,0.0,0.0
12/11/2022,06:11:34,-0.000,0.0,0.0,0.0
12/11/2022,06:12:34,0.000,0.0,0.0,0.0
12/11/2022,06:13:35,-0.001,0.0,0.0,0.0
12/11/2022,06:14:34,-0.000,0.0,0.0,0.0
12/11/2022,06:15:34,-0.000,0.0,0.0,0.0
12/11/2022,06:16:35,-0.000,0.0,0.0,0.0
12/11/2022,06:17:34,-0.001,0.0,0.0,0.0
12/11/2022,06:18:34,0.000,0.0,0.0,0.0
12/11/2022,06:19:35,0.000,0.0,0.0,0.0
12/11/2022,06:20:36,-0.001,0.0,0.0,0.0
12/11/2022,06:21:36,-0.000,0.0,0.0,0.0
12/11/2022,06:22:35,-0.000,0.0,0.0,0.0
12/11/2022,06:23:34,-0.000,0.0,0.0,0.0
12/11/2022,06:24:34,-0.000,0.0,0.0,0.0
12/11/2022,06:25:34,-0.001,0.0,0.0,0.0
12/11/2022,06:26:34,-0.001,0.0,0.0,0.0
12/11/2022,06:27:35,0.000,0.0,0.0,0.0
12/11/2022,06:28:34,0.000,0.0,0.0,0.0
12/11/2022,06:29:34,0.000,0.0,0.0,0.0
12/11/2022,06:30:35,0.000,0.0,0.0,0.0
12/11/2022,06:31:34,-0.000,0.0,0.0,0.0
12/11/2022,06:32:35,-0.000,0.0,0.0,0.0
12/11/2022,06:33:35,-0.000,0.0,0.0,0.0
12/11/2022,06:34:35,0.000,0.0,0.0,0.0
12/11/2022,06:35:34,-0.001,0.0,0.0,0.0
12/11/2022,06:36:35,0.000,0.0,0.0,0.0
12/11/2022,06:37:34,-0.000,0.0,0.0,0.0
12/11/2022,06:38:34,0.000,0.0,0.0,0.0
12/11/2022,06:39:35,0.000,0.0,0.0,0.0
12/11/2022,06:40:35,-0.000,0.0,0.0,0.0
12/11/2022,06:41:35,-0.000,0.0,0.0,0.0
12/11/2022,06:42:35,0.000,0.0,0.0,0.0
12/11/2022,06:43:34,-0.001,0.0,0.0,0.0
12/11/2022,06:44:34,0.001,0.0,0.0,0.0
12/11/2022,06:45:34,-0.000,0.0,0.0,0.0
12/11/2022,06:46:34,0.001,0.0,0.0,0.0
12/11/2022,06:47:35,-0.000,0.0,0.0,0.0
12/11/2022,06:48:36,-0.000,0.0,0.0,0.0
12/11/2022,06:49:35,-0.000,0.0,0.0,0.0
12/11/2022,06:50:35,-0.000,0.0,0.0,0.0
12/11/2022,06:51:34,0.001,0.0,0.0,0.0
12/11/2022,06:52:34,0.001,0.0,0.0,0.0
12/11/2022,06:53:35,-0.001,0.0,0.0,0.0
12/11/2022,06:54:34,-0.000,0.0,0.0,0.0
12/11/2022,06:55:34,0.001,0.0,0.0,0.0
12/11/2022,06:56:35,-0.000,0.0,0.0,0.0
12/11/2022,06:57:34,-0.000,0.0,0.0,0.0
12/11/2022,06:58:34,-0.000,0.0,0.0,0.0
12/11/2022,06:59:35,0.000,0.0,0.0,0.0
12/11/2022,07:00:35,0.000,0.0,0.0,0.0
12/11/2022,07:01:35,-0.000,0.0,0.0,0.0
12/11/2022,07:02:34,-0.001,0.0,0.0,0.0
12/11/2022,07:03:34,0.000,0.0,0.0,0.0
12/11/2022,07:04:57,-0.001,0.0,0.0,0.0
12/11/2022,07:05:34,0.000,0.0,0.0,0.0
12/11/2022,07:06:35,0.001,0.0,0.0,0.0
12/11/2022,07:07:34,-0.001,0.0,0.0,0.0
12/11/2022,07:08:35,0.000,0.0,0.0,0.0
12/11/2022,07:09:35,0.000,0.0,0.0,0.0
12/11/2022,07:10:34,0.000,0.0,0.0,0.0
12/11/2022,07:11:34,-0.000,0.0,0.0,0.0
12/11/2022,07:12:34,0.001,0.0,0.0,0.0
12/11/2022,07:13:35,0.000,0.0,0.0,0.0
12/11/2022,07:14:35,-0.001,0.0,0.0,0.0
12/11/2022,07:15:34,-0.000,0.0,0.0,0.0
12/11/2022,07:16:34,0.000,0.0,0.0,0.0
12/11/2022,07:17:35,0.001,0.0,0.0,0.0
12/11/2022,07:18:35,0.001,0.0,0.0,0.0
12/11/2022,07:19:34,0.001,0.0,0.0,0.0
12/11/2022,07:20:35,0.001,0.0,0.0,0.0
12/11/2022,07:21:34,0.001,0.0,0.0,0.0
12/11/2022,07:22:35,0.002,0.0,0.0,0.0
12/11/2022,07:23:35,0.001,0.0,0.0,0.0
12/11/2022,07:24:34,0.001,0.0,0.0,0.0
12/11/2022,07:25:34,0.002,0.0,0.0,0.0
12/11/2022,07:26:35,0.002,0.0,0.0,0.0
12/11/2022,07:27:34,0.002,0.0,0.0,0.0
12/11/2022,07:28:34,0.002,0.0,0.0,0.0
12/11/2022,07:29:35,0.002,0.0,0.0,0.0
12/11/2022,07:30:35,0.002,0.0,0.0,0.0
12/11/2022,07:31:34,0.002,0.0,0.0,0.0
12/11/2022,07:32:35,0.002,0.0,0.0,0.0
12/11/2022,07:33:34,0.003,0.0,0.0,0.0
12/11/2022,07:34:35,0.002,0.0,0.0,0.0
12/11/2022,07:35:34,0.003,0.0,0.0,0.0
12/11/2022,07:36:34,0.003,0.0,0.0,0.0
12/11/2022,07:37:35,0.002,0.0,0.0,0.0
12/11/2022,07:38:34,0.003,0.0,0.0,0.0
12/11/2022,07:39:34,0.003,0.0,0.0,0.0
12/11/2022,07:40:35,0.004,0.0,0.0,0.0
12/11/2022,07:41:34,0.003,0.0,0.0,0.0
12/11/2022,07:42:35,0.004,0.0,0.0,0.0
12/11/2022,07:43:34,0.005,0.0,0.0,0.0
12/11/2022,07:44:34,0.003,0.0,0.0,0.0
12/11/2022,07:45:35,0.005,0.0,0.0,0.0
12/11/2022,07:46:34,0.005,0.0,0.0,0.0
12/11/2022,07:47:34,0.005,0.0,0.0,0.0
12/11/2022,07:48:35,0.006,0.0,0.0,0.0
12/11/2022,07:49:34,0.006,0.0,0.0,0.0
12/11/2022,07:50:34,0.006,0.0,0.0,0.0
12/11/2022,07:51:35,0.007,0.0,0.0,0.0
12/11/2022,07:52:34,0.007,0.0,0.0,0.0
12/11/2022,07:53:35,0.007,0.0,0.0,0.0
12/11/2022,07:54:34,0.007,0.0,0.001,0.001
12/11/2022,07:55:35,0.008,0.0,0.001,0.0
12/11/2022,07:56:35,0.008,0.0,0.001,0.0
12/11/2022,07:57:35,0.008,0.0,0.001,0.0
12/11/2022,07:58:35,0.008,0.0,0.001,0.0
12/11/2022,07:59:34,0.008,0.0,0.001,0.0
12/11/2022,08:00:35,0.009,0.0,0.001,0.0
12/11/2022,08:01:35,0.009,0.0,0.001,0.0
12/11/2022,08:02:35,0.009,0.0,0.002,0.001
12/11/2022,08:03:35,0.008,0.0,0.002,0.0
12/11/2022,08:04:35,0.009,0.0,0.002,0.0
12/11/2022,08:05:35,0.009,0.0,0.002,0.0
12/11/2022,08:06:35,0.009,0.0,0.002,0.0
12/11/2022,08:07:35,0.009,0.0,0.002,0.0
12/11/2022,08:08:36,0.008,0.0,0.003,0.001
12/11/2022,08:09:34,0.008,0.0,0.003,0.0
12/11/2022,08:10:34,0.011,0.0,0.003,0.0
12/11/2022,08:11:35,0.011,0.0,0.003,0.0
12/11/2022,08:12:35,0.012,0.0,0.003,0.0
12/11/2022,08:13:35,0.012,0.0,0.003,0.0
12/11/2022,08:14:34,0.011,0.0,0.004,0.001
12/11/2022,08:15:35,0.012,0.0,0.004,0.0
12/11/2022,08:16:35,0.012,0.0,0.004,0.0
12/11/2022,08:17:35,0.014,0.0,0.004,0.0
12/11/2022,08:18:35,0.013,0.0,0.004,0.0
12/11/2022,08:19:35,0.012,0.0,0.005,0.001
12/11/2022,08:20:35,0.013,0.0,0.005,0.0
12/11/2022,08:21:35,0.013,0.0,0.005,0.0
12/11/2022,08:22:35,0.014,0.0,0.005,0.0
12/11/2022,08:23:35,0.015,0.0,0.006,0.001
12/11/2022,08:24:34,0.015,0.0,0.006,0.0
12/11/2022,08:25:34,0.015,0.0,0.006,0.0
12/11/2022,08:26:35,0.017,0.0,0.006,0.0
12/11/2022,08:27:35,0.018,0.0,0.007,0.001
12/11/2022,08:28:35,0.018,0.0,0.007,0.0
12/11/2022,08:29:34,0.019,0.0,0.007,0.0
12/11/2022,08:30:34,0.020,0.0,0.008,0.001
12/11/2022,08:31:35,0.020,0.0,0.008,0.0
12/11/2022,08:32:35,0.019,0.0,0.008,0.0
12/11/2022,08:33:35,0.018,0.0,0.008,0.0
12/11/2022,08:34:35,0.021,0.0,0.009,0.001
12/11/2022,08:35:35,0.024,0.0,0.009,0.0
12/11/2022,08:36:34,0.023,0.0,0.01,0.001
12/11/2022,08:37:35,0.027,0.0,0.01,0.0
12/11/2022,08:38:35,0.028,0.0,0.01,0.0
12/11/2022,08:39:35,0.026,0.0,0.011,0.001
12/11/2022,08:40:35,0.025,0.0,0.011,0.0
12/11/2022,08:41:35,0.027,0.0,0.012,0.001
12/11/2022,08:42:35,0.029,0.0,0.012,0.0
12/11/2022,08:43:34,0.030,0.0,0.013,0.001
12/11/2022,08:44:35,0.030,0.0,0.013,0.0
12/11/2022,08:45:34,0.030,0.0,0.014,0.001
12/11/2022,08:46:35,0.032,0.0,0.014,0.0
12/11/2022,08:47:35,0.037,0.0,0.015,0.001
12/11/2022,08:48:34,0.040,0.0,0.015,0.0
12/11/2022,08:49:34,0.044,0.0,0.016,0.001
12/11/2022,08:50:35,0.048,0.0,0.017,0.001
12/11/2022,08:51:35,0.048,0.0,0.018,0.001
12/11/2022,08:52:35,0.047,0.0,0.018,0.0
12/11/2022,08:53:35,0.043,0.0,0.019,0.001
12/11/2022,08:54:35,0.043,0.0,0.02,0.001
12/11/2022,08:55:35,0.044,0.0,0.021,0.001
12/11/2022,08:56:34,0.048,0.0,0.021,0.0
12/11/2022,08:57:34,0.051,0.0,0.022,0.001
12/11/2022,08:58:35,0.050,0.0,0.023,0.001
12/11/2022,08:59:35,0.054,0.0,0.024,0.001
12/11/2022,09:00:35,0.054,0.0,0.025,0.001
12/11/2022,09:01:35,0.051,0.0,0.026,0.001
12/11/2022,09:02:35,0.053,0.0,0.027,0.001
12/11/2022,09:03:35,0.055,0.0,0.028,0.001
12/11/2022,09:04:35,0.058,0.0,0.029,0.001
12/11/2022,09:05:34,0.054,0.0,0.029,0.0
12/11/2022,09:06:34,0.059,0.0,0.03,0.001
12/11/2022,09:07:35,0.061,0.0,0.031,0.001
12/11/2022,09:08:35,0.059,0.0,0.032,0.001
12/11/2022,09:09:35,0.060,0.0,0.033,0.001
12/11/2022,09:10:35,0.060,0.0,0.034,0.001
12/11/2022,09:11:35,0.061,0.0,0.035,0.001
12/11/2022,09:12:35,0.062,0.0,0.036,0.001
12/11/2022,09:13:35,0.060,0.0,0.037,0.001
12/11/2022,09:14:35,0.056,0.0,0.038,0.001
12/11/2022,09:15:35,0.057,0.0,0.039,0.001
12/11/2022,09:16:34,0.060,0.0,0.04,0.001
12/11/2022,09:17:35,0.063,0.0,0.041,0.001
12/11/2022,09:18:35,0.066,0.0,0.042,0.001
12/11/2022,09:19:35,0.069,0.0,0.044,0.002
12/11/2022,09:20:35,0.074,0.0,0.045,0.001
12/11/2022,09:21:35,0.078,0.0,0.046,0.001
12/11/2022,09:22:34,0.081,0.0,0.047,0.001
12/11/2022,09:23:34,0.083,0.0,0.049,0.002
12/11/2022,09:24:35,0.088,0.0,0.05,0.001
12/11/2022,09:25:35,0.093,0.0,0.052,0.002
12/11/2022,09:26:34,0.093,0.0,0.053,0.001
12/11/2022,09:27:35,0.096,0.0,0.055,0.002
12/11/2022,09:28:35,0.098,0.0,0.056,0.001
12/11/2022,09:29:35,0.105,0.0,0.058,0.002
12/11/2022,09:30:35,0.114,0.0,0.06,0.002
12/11/2022,09:31:35,0.118,0.0,0.062,0.002
12/11/2022,09:32:35,0.122,0.0,0.064,0.002
12/11/2022,09:33:35,0.126,0.0,0.066,0.002
12/11/2022,09:34:35,0.131,0.0,0.068,0.002
12/11/2022,09:35:35,0.135,0.0,0.07,0.002
12/11/2022,09:36:35,0.136,0.0,0.073,0.003
12/11/2022,09:37:35,0.135,0.0,0.075,0.002
12/11/2022,09:38:35,0.136,0.0,0.077,0.002
12/11/2022,09:39:34,0.136,0.0,0.079,0.002
12/11/2022,09:40:35,0.137,0.0,0.082,0.003
12/11/2022,09:41:35,0.137,0.0,0.084,0.002
12/11/2022,09:42:35,0.137,0.0,0.086,0.002
12/11/2022,09:43:35,0.137,0.0,0.089,0.003
12/11/2022,09:44:35,0.137,0.0,0.091,0.002
12/11/2022,09:45:35,0.136,0.0,0.093,0.002
12/11/2022,09:46:35,0.138,0.0,0.095,0.002
12/11/2022,09:47:35,0.137,0.0,0.098,0.003
12/11/2022,09:48:35,0.137,0.0,0.1,0.002
12/11/2022,09:49:35,0.138,0.0,0.102,0.002
12/11/2022,09:50:34,0.138,0.0,0.104,0.002
12/11/2022,09:51:35,0.137,0.0,0.107,0.003
12/11/2022,09:52:35,0.138,0.0,0.109,0.002
12/11/2022,09:53:35,0.137,0.0,0.111,0.002
12/11/2022,09:54:35,0.137,0.0,0.114,0.003
12/11/2022,09:55:35,0.138,0.0,0.116,0.002
12/11/2022,09:56:35,0.137,0.0,0.118,0.002
12/11/2022,09:57:34,0.138,0.0,0.12,0.002
12/11/2022,09:58:35,0.140,0.0,0.123,0.003
12/11/2022,09:59:35,0.139,0.0,0.125,0.002
12/11/2022,10:00:35,0.141,0.0,0.127,0.002
12/11/2022,10:01:35,0.141,0.0,0.13,0.003
12/11/2022,10:02:34,0.143,0.0,0.132,0.002
12/11/2022,10:03:35,0.143,0.0,0.135,0.003
12/11/2022,10:04:35,0.143,0.0,0.137,0.002
12/11/2022,10:05:35,0.145,0.0,0.139,0.002
12/11/2022,10:06:35,0.142,0.0,0.142,0.003
12/11/2022,10:07:35,0.135,0.0,0.144,0.002
12/11/2022,10:08:35,0.136,0.0,0.146,0.002
12/11/2022,10:09:35,0.136,0.0,0.149,0.003
12/11/2022,10:10:35,0.137,0.0,0.151,0.002
12/11/2022,10:11:35,0.138,0.0,0.153,0.002
12/11/2022,10:12:35,0.137,0.0,0.155,0.002
12/11/2022,10:13:35,0.136,0.0,0.158,0.003
12/11/2022,10:14:35,0.135,0.0,0.16,0.002